QPF
0.01 0.02 0.02 0.02 0.01 0.01 0.01 0.01 0.02 0.02 0.02 0.03 0.03 0.04 0.05 0.05 0.03 0.05 0.10 0.13 0.11 0.06 0.03 0.02 0.02 0.04 0.04 0.01 0.01 0.03 0.06 0.08 0.06 0.05 0.05 0.04 0.02 0.01 0.01 0.01 0.01 0.01 0.00 0.01
0.01 0.02 0.02 0.02 0.01 0.01 0.01 0.01 0.01 0.01 0.01 0.02 0.04 0.04 0.05 0.05 0.03 0.02 0.02 0.07 0.12 0.06 0.03 0.04 0.02 0.02 0.01 0.00 0.00 0.01 0.03 0.08 0.07 0.06 0.04 0.03 0.03 0.02 0.02 0.02 0.01 0.01 0.01 0.01
0.03 0.02 0.02 0.01 0.01 0.02 0.02 0.01 0.01 0.01 0.01 0.02 0.02 0.02 0.04 0.04 0.03 0.02 0.02 0.03 0.05 0.02 0.01 0.01 0.01 0.01 0.01 0.00 0.00 0.00 0.01 0.04 0.08 0.06 0.05 0.05 0.03 0.02 0.02 0.02 0.02 0.02 0.02 0.01
0.03 0.01 0.02 0.01 0.01 0.01 0.01 0.01 0.01 0.02 0.02 0.02 0.01 0.02 0.03 0.02 0.03 0.04 0.04 0.02 0.02 0.01 0.01 0.01 0.01 0.01 0.01 0.00 0.00 0.01 0.01 0.01 0.03 0.05 0.05 0.05 0.05 0.03 0.03 0.03 0.03 0.02 0.02 0.01
0.01 0.01 0.01 0.01 0.02 0.02 0.02 0.03 0.02 0.02 0.02 0.02 0.01 0.01 0.03 0.03 0.02 0.03 0.04 0.04 0.05 0.03 0.01 0.01 0.01 0.01 0.01 0.01 0.01 0.01 0.01 0.01 0.01 0.02 0.02 0.03 0.04 0.03 0.03 0.03 0.03 0.02 0.02 0.01
0.02 0.02 0.03 0.03 0.02 0.02 0.02 0.03 0.04 0.04 0.02 0.02 0.01 0.02 0.03 0.05 0.04 0.03 0.05 0.08 0.07 0.04 0.01 0.02 0.02 0.02 0.02 0.02 0.02 0.02 0.01 0.01 0.02 0.02 0.02 0.02 0.02 0.03 0.03 0.03 0.03 0.02 0.01 0.01
0.03 0.03 0.03 0.03 0.02 0.03 0.03 0.03 0.03 0.03 0.03 0.02 0.02 0.02 0.03 0.04 0.06 0.04 0.04 0.03 0.02 0.01 0.02 0.02 0.02 0.03 0.05 0.06 0.06 0.04 0.03 0.03 0.03 0.03 0.04 0.04 0.03 0.02 0.02 0.03 0.02 0.01 0.01 0.02
0.04 0.06 0.05 0.03 0.03 0.04 0.05 0.03 0.03 0.04 0.04 0.04 0.03 0.03 0.03 0.03 0.04 0.04 0.04 0.03 0.02 0.02 0.01 0.01 0.02 0.04 0.05 0.06 0.07 0.07 0.06 0.05 0.05 0.05 0.05 0.06 0.05 0.04 0.03 0.03 0.02 0.02 0.02 0.02
0.05 0.06 0.05 0.03 0.03 0.03 0.03 0.04 0.04 0.05 0.04 0.03 0.03 0.02 0.03 0.03 0.04 0.03 0.04 0.04 0.03 0.03 0.02 0.03 0.03 0.04 0.05 0.05 0.06 0.08 0.08 0.07 0.07 0.07 0.06 0.07 0.07 0.06 0.05 0.05 0.04 0.04 0.04 0.03
0.05 0.05 0.05 0.03 0.02 0.02 0.03 0.07 0.08 0.06 0.04 0.03 0.03 0.02 0.02 0.04 0.05 0.08 0.10 0.07 0.04 0.03 0.02 0.02 0.02 0.02 0.03 0.04 0.06 0.07 0.07 0.08 0.09 0.09 0.09 0.09 0.10 0.09 0.07 0.07 0.06 0.06 0.05 0.04
0.07 0.05 0.04 0.03 0.02 0.02 0.03 0.05 0.06 0.07 0.06 0.04 0.04 0.07 0.05 0.04 0.07 0.11 0.13 0.09 0.06 0.05 0.05 0.04 0.05 0.04 0.04 0.05 0.06 0.06 0.06 0.07 0.08 0.07 0.07 0.09 0.10 0.09 0.07 0.06 0.06 0.05 0.04 0.04
0.07 0.05 0.03 0.04 0.03 0.03 0.03 0.04 0.03 0.03 0.05 0.09 0.07 0.06 0.06 0.06 0.09 0.09 0.09 0.10 0.11 0.11 0.09 0.06 0.04 0.03 0.04 0.05 0.05 0.05 0.05 0.05 0.05 0.04 0.05 0.06 0.08 0.07 0.05 0.05 0.05 0.05 0.04 0.04
0.03 0.03 0.02 0.02 0.03 0.03 0.04 0.04 0.03 0.03 0.04 0.04 0.04 0.04 0.05 0.06 0.09 0.12 0.11 0.12 0.12 0.10 0.07 0.05 0.04 0.04 0.05 0.05 0.05 0.06 0.07 0.08 0.08 0.06 0.05 0.06 0.06 0.05 0.04 0.03 0.03 0.04 0.04 0.04
0.01 0.02 0.02 0.02 0.03 0.03 0.03 0.03 0.02 0.03 0.04 0.06 0.04 0.03 0.04 0.05 0.07 0.08 0.09 0.11 0.13 0.10 0.05 0.04 0.04 0.05 0.04 0.05 0.06 0.07 0.07 0.07 0.08 0.07 0.06 0.05 0.05 0.05 0.04 0.03 0.03 0.02 0.03 0.05
0.01 0.02 0.02 0.01 0.02 0.02 0.02 0.02 0.03 0.04 0.05 0.07 0.06 0.04 0.03 0.04 0.06 0.08 0.10 0.10 0.10 0.09 0.06 0.05 0.05 0.05 0.05 0.06 0.06 0.07 0.07 0.06 0.06 0.06 0.06 0.06 0.06 0.05 0.05 0.04 0.03 0.03 0.03 0.03
0.02 0.01 0.01 0.01 0.03 0.03 0.02 0.03 0.04 0.04 0.05 0.05 0.05 0.04 0.03 0.03 0.05 0.08 0.09 0.09 0.09 0.08 0.08 0.08 0.10 0.11 0.09 0.09 0.08 0.09 0.09 0.09 0.09 0.07 0.06 0.06 0.05 0.05 0.05 0.03 0.02 0.02 0.02 0.02
0.01 0.01 0.01 0.01 0.02 0.02 0.02 0.03 0.04 0.04 0.04 0.03 0.03 0.03 0.03 0.03 0.04 0.06 0.07 0.08 0.08 0.07 0.09 0.10 0.12 0.14 0.14 0.12 0.10 0.09 0.09 0.10 0.11 0.10 0.09 0.07 0.06 0.05 0.04 0.04 0.03 0.02 0.01 0.02
0.03 0.03 0.03 0.03 0.02 0.02 0.02 0.02 0.03 0.03 0.04 0.03 0.03 0.03 0.03 0.04 0.05 0.05 0.06 0.06 0.06 0.05 0.08 0.11 0.13 0.14 0.16 0.16 0.14 0.12 0.11 0.11 0.10 0.10 0.09 0.08 0.07 0.04 0.04 0.04 0.04 0.02 0.02 0.03
0.06 0.06 0.05 0.04 0.02 0.02 0.02 0.02 0.02 0.03 0.03 0.03 0.03 0.02 0.03 0.04 0.06 0.06 0.08 0.10 0.10 0.11 0.11 0.09 0.12 0.13 0.13 0.14 0.14 0.12 0.12 0.13 0.11 0.09 0.06 0.06 0.05 0.04 0.03 0.03 0.03 0.03 0.03 0.03
0.04 0.03 0.02 0.02 0.03 0.03 0.02 0.03 0.03 0.03 0.03 0.03 0.02 0.02 0.02 0.02 0.03 0.04 0.05 0.06 0.06 0.06 0.08 0.08 0.10 0.13 0.13 0.13 0.13 0.13 0.13 0.12 0.11 0.10 0.08 0.06 0.04 0.03 0.03 0.03 0.03 0.02 0.02 0.03
0.03 0.02 0.02 0.01 0.01 0.02 0.02 0.04 0.05 0.04 0.03 0.02 0.03 0.03 0.03 0.02 0.03 0.03 0.04 0.05 0.05 0.05 0.05 0.07 0.11 0.12 0.12 0.12 0.10 0.10 0.11 0.10 0.09 0.08 0.06 0.05 0.04 0.03 0.03 0.03 0.03 0.02 0.02 0.02
0.02 0.02 0.02 0.01 0.01 0.02 0.02 0.02 0.02 0.02 0.02 0.02 0.03 0.03 0.04 0.04 0.03 0.03 0.03 0.03 0.04 0.03 0.04 0.06 0.10 0.12 0.12 0.11 0.09 0.08 0.07 0.06 0.06 0.05 0.04 0.04 0.04 0.03 0.03 0.03 0.03 0.03 0.03 0.03
0.02 0.02 0.02 0.02 0.02 0.02 0.02 0.02 0.03 0.03 0.02 0.03 0.03 0.02 0.02 0.02 0.01 0.02 0.02 0.03 0.03 0.03 0.04 0.07 0.09 0.08 0.06 0.06 0.05 0.04 0.04 0.03 0.03 0.02 0.02 0.02 0.02 0.03 0.03 0.03 0.04 0.04 0.04 0.04
0.02 0.01 0.02 0.03 0.02 0.02 0.02 0.03 0.05 0.05 0.03 0.02 0.02 0.02 0.02 0.02 0.02 0.02 0.03 0.03 0.03 0.03 0.04 0.06 0.06 0.05 0.04 0.04 0.04 0.03 0.02 0.02 0.02 0.02 0.02 0.02 0.02 0.02 0.02 0.02 0.02 0.02 0.02 0.02
0.01 0.01 0.02 0.04 0.02 0.02 0.02 0.05 0.10 0.07 0.04 0.03 0.03 0.03 0.03 0.03 0.03 0.03 0.02 0.02 0.02 0.03 0.04 0.05 0.06 0.05 0.04 0.03 0.03 0.03 0.02 0.01 0.01 0.01 0.01 0.01 0.01 0.01 0.01 0.01 0.02 0.02 0.01 0.01
0.01 0.01 0.02 0.01 0.01 0.01 0.02 0.02 0.03 0.03 0.02 0.02 0.02 0.02 0.03 0.04 0.04 0.04 0.03 0.02 0.02 0.01 0.02 0.03 0.05 0.05 0.04 0.03 0.02 0.02 0.01 0.01 0.01 0.01 0.01 0.01 0.01 0.01 0.01 0.01 0.02 0.01 0.01 0.01
0.01 0.01 0.01 0.01 0.01 0.01 0.02 0.02 0.02 0.03 0.02 0.02 0.02 0.01 0.02 0.03 0.03 0.03 0.03 0.03 0.02 0.01 0.00 0.01 0.02 0.03 0.03 0.02 0.01 0.01 0.01 0.01 0.01 0.01 0.01 0.01 0.01 0.01 0.01 0.01 0.01 0.01 0.01 0.01
MSLP
1018.53 1018.48 1018.46 1018.46 1018.50 1018.56 1018.62 1018.66 1018.63 1018.53 1018.34 1018.05 1017.68 1017.24 1016.75 1016.23 1015.69 1015.14 1014.56 1013.96 1013.33 1012.67 1011.99 1011.30 1010.62 1009.97 1009.37 1008.86 1008.43 1008.08 1007.81 1007.61 1007.45 1007.33 1007.21 1007.12 1007.03 1006.96 1006.92 1006.92 1006.98 1007.11 1007.32 1007.63
1018.51 1018.54 1018.57 1018.59 1018.62 1018.66 1018.68 1018.66 1018.60 1018.47 1018.26 1017.98 1017.63 1017.22 1016.75 1016.26 1015.73 1015.17 1014.59 1013.97 1013.31 1012.61 1011.89 1011.15 1010.41 1009.70 1009.04 1008.45 1007.96 1007.56 1007.25 1007.04 1006.90 1006.83 1006.81 1006.83 1006.89 1006.96 1007.06 1007.19 1007.36 1007.57 1007.84 1008.18
1018.58 1018.66 1018.72 1018.76 1018.79 1018.80 1018.77 1018.71 1018.60 1018.43 1018.20 1017.91 1017.56 1017.16 1016.72 1016.24 1015.74 1015.20 1014.62 1014.01 1013.34 1012.63 1011.88 1011.10 1010.30 1009.52 1008.78 1008.11 1007.53 1007.06 1006.71 1006.48 1006.36 1006.36 1006.44 1006.59 1006.79 1007.03 1007.28 1007.55 1007.83 1008.13 1008.45 1008.81
1018.76 1018.87 1018.95 1019.00 1019.01 1018.98 1018.92 1018.81 1018.64 1018.43 1018.16 1017.83 1017.47 1017.07 1016.64 1016.18 1015.69 1015.18 1014.63 1014.03 1013.37 1012.65 1011.88 1011.06 1010.21 1009.36 1008.54 1007.78 1007.12 1006.59 1006.20 1005.96 1005.88 1005.94 1006.13 1006.41 1006.77 1007.16 1007.57 1007.97 1008.36 1008.73 1009.10 1009.47
1019.05 1019.16 1019.23 1019.27 1019.25 1019.19 1019.08 1018.92 1018.71 1018.44 1018.12 1017.76 1017.36 1016.94 1016.50 1016.04 1015.56 1015.05 1014.51 1013.92 1013.26 1012.54 1011.74 1010.89 1010.00 1009.09 1008.21 1007.39 1006.68 1006.11 1005.71 1005.49 1005.46 1005.61 1005.91 1006.33 1006.83 1007.37 1007.92 1008.44 1008.93 1009.37 1009.77 1010.15
1019.38 1019.46 1019.51 1019.51 1019.47 1019.38 1019.23 1019.02 1018.76 1018.44 1018.07 1017.66 1017.22 1016.75 1016.28 1015.79 1015.28 1014.75 1014.19 1013.58 1012.91 1012.17 1011.35 1010.47 1009.55 1008.62 1007.71 1006.88 1006.16 1005.61 1005.24 1005.08 1005.13 1005.38 1005.80 1006.35 1006.99 1007.66 1008.33 1008.96 1009.52 1010.01 1010.44 1010.82
1019.64 1019.68 1019.69 1019.67 1019.61 1019.49 1019.31 1019.08 1018.78 1018.42 1018.00 1017.54 1017.04 1016.52 1015.97 1015.42 1014.85 1014.26 1013.65 1012.98 1012.27 1011.49 1010.64 1009.75 1008.82 1007.90 1007.01 1006.22 1005.56 1005.07 1004.79 1004.73 1004.90 1005.27 1005.82 1006.51 1007.27 1008.05 1008.81 1009.52 1010.14 1010.67 1011.12 1011.50
1019.76 1019.75 1019.73 1019.69 1019.61 1019.48 1019.30 1019.06 1018.75 1018.36 1017.91 1017.40 1016.84 1016.25 1015.62 1014.97 1014.31 1013.62 1012.91 1012.16 1011.37 1010.54 1009.67 1008.77 1007.86 1006.98 1006.17 1005.47 1004.92 1004.57 1004.43 1004.51 1004.82 1005.34 1006.01 1006.81 1007.67 1008.53 1009.36 1010.11 1010.77 1011.33 1011.79 1012.18
1019.66 1019.63 1019.58 1019.53 1019.46 1019.35 1019.19 1018.96 1018.66 1018.28 1017.82 1017.27 1016.66 1015.99 1015.27 1014.51 1013.73 1012.92 1012.09 1011.24 1010.36 1009.47 1008.57 1007.68 1006.82 1006.02 1005.32 1004.77 1004.38 1004.20 1004.23 1004.49 1004.95 1005.60 1006.39 1007.27 1008.20 1009.11 1009.97 1010.75 1011.42 1011.99 1012.46 1012.85
1019.36 1019.31 1019.26 1019.22 1019.18 1019.10 1018.99 1018.80 1018.54 1018.19 1017.73 1017.18 1016.53 1015.79 1014.99 1014.14 1013.24 1012.31 1011.36 1010.40 1009.44 1008.50 1007.58 1006.72 1005.93 1005.24 1004.68 1004.29 1004.09 1004.10 1004.31 1004.73 1005.34 1006.10 1006.97 1007.91 1008.86 1009.79 1010.65 1011.42 1012.08 1012.65 1013.12 1013.53
1018.91 1018.85 1018.82 1018.81 1018.80 1018.78 1018.73 1018.61 1018.40 1018.10 1017.68 1017.14 1016.48 1015.72 1014.87 1013.93 1012.95 1011.92 1010.88 1009.84 1008.82 1007.85 1006.94 1006.12 1005.41 1004.85 1004.44 1004.22 1004.20 1004.38 1004.76 1005.31 1006.02 1006.85 1007.77 1008.71 1009.65 1010.55 1011.37 1012.11 1012.75 1013.30 1013.78 1014.20
1018.38 1018.34 1018.34 1018.36 1018.41 1018.45 1018.46 1018.41 1018.27 1018.03 1017.67 1017.18 1016.55 1015.79 1014.93 1013.97 1012.94 1011.87 1010.79 1009.71 1008.67 1007.70 1006.83 1006.07 1005.46 1005.02 1004.75 1004.68 1004.81 1005.12 1005.61 1006.25 1007.01 1007.86 1008.76 1009.66 1010.54 1011.37 1012.13 1012.82 1013.42 1013.96 1014.43 1014.86
1017.90 1017.88 1017.90 1017.97 1018.06 1018.15 1018.22 1018.23 1018.17 1018.00 1017.71 1017.28 1016.71 1016.01 1015.18 1014.25 1013.25 1012.19 1011.12 1010.06 1009.05 1008.12 1007.31 1006.63 1006.11 1005.77 1005.62 1005.66 1005.88 1006.28 1006.82 1007.49 1008.24 1009.05 1009.89 1010.71 1011.50 1012.25 1012.93 1013.55 1014.11 1014.62 1015.09 1015.54
1017.54 1017.54 1017.59 1017.68 1017.80 1017.93 1018.04 1018.10 1018.10 1018.00 1017.79 1017.44 1016.95 1016.33 1015.59 1014.74 1013.81 1012.83 1011.82 1010.83 1009.90 1009.05 1008.31 1007.72 1007.29 1007.03 1006.96 1007.06 1007.34 1007.75 1008.30 1008.93 1009.63 1010.36 1011.09 1011.81 1012.50 1013.15 1013.75 1014.30 1014.82 1015.32 1015.79 1016.25
1017.33 1017.36 1017.42 1017.53 1017.66 1017.80 1017.93 1018.03 1018.07 1018.03 1017.88 1017.62 1017.23 1016.72 1016.09 1015.36 1014.54 1013.68 1012.79 1011.91 1011.08 1010.33 1009.68 1009.17 1008.81 1008.62 1008.58 1008.72 1008.99 1009.38 1009.88 1010.44 1011.05 1011.68 1012.30 1012.91 1013.50 1014.05 1014.58 1015.08 1015.57 1016.05 1016.53 1017.00
1017.30 1017.34 1017.41 1017.51 1017.64 1017.78 1017.91 1018.01 1018.08 1018.07 1017.98 1017.80 1017.51 1017.11 1016.61 1016.01 1015.34 1014.61 1013.86 1013.11 1012.40 1011.76 1011.21 1010.77 1010.47 1010.31 1010.29 1010.41 1010.65 1010.99 1011.42 1011.90 1012.41 1012.93 1013.46 1013.97 1014.46 1014.95 1015.42 1015.89 1016.36 1016.83 1017.31 1017.79
1017.38 1017.44 1017.51 1017.61 1017.72 1017.84 1017.95 1018.05 1018.11 1018.13 1018.09 1017.97 1017.76 1017.47 1017.09 1016.63 1016.10 1015.52 1014.91 1014.29 1013.70 1013.15 1012.68 1012.31 1012.05 1011.90 1011.88 1011.97 1012.17 1012.45 1012.80 1013.20 1013.62 1014.06 1014.50 1014.95 1015.38 1015.82 1016.27 1016.72 1017.17 1017.64 1018.12 1018.59
1017.55 1017.62 1017.69 1017.78 1017.87 1017.96 1018.05 1018.13 1018.19 1018.21 1018.20 1018.13 1017.99 1017.79 1017.52 1017.18 1016.77 1016.32 1015.83 1015.33 1014.84 1014.38 1013.97 1013.65 1013.41 1013.27 1013.23 1013.29 1013.45 1013.68 1013.96 1014.30 1014.67 1015.05 1015.44 1015.85 1016.26 1016.67 1017.10 1017.54 1017.99 1018.45 1018.91 1019.36
1017.73 1017.82 1017.90 1017.98 1018.06 1018.13 1018.20 1018.25 1018.30 1018.32 1018.32 1018.29 1018.20 1018.07 1017.88 1017.63 1017.33 1016.98 1016.59 1016.18 1015.77 1015.37 1015.02 1014.73 1014.50 1014.37 1014.32 1014.36 1014.48 1014.67 1014.93 1015.23 1015.56 1015.92 1016.29 1016.68 1017.08 1017.49 1017.91 1018.33 1018.76 1019.20 1019.62 1020.03
1017.90 1018.02 1018.11 1018.20 1018.26 1018.32 1018.37 1018.41 1018.44 1018.47 1018.47 1018.46 1018.42 1018.33 1018.20 1018.02 1017.80 1017.52 1017.21 1016.87 1016.51 1016.17 1015.86 1015.59 1015.38 1015.25 1015.20 1015.23 1015.34 1015.51 1015.75 1016.04 1016.37 1016.72 1017.09 1017.48 1017.87 1018.27 1018.67 1019.06 1019.46 1019.84 1020.21 1020.55
1018.06 1018.20 1018.32 1018.41 1018.47 1018.52 1018.56 1018.59 1018.62 1018.64 1018.65 1018.65 1018.63 1018.59 1018.50 1018.38 1018.20 1017.99 1017.73 1017.44 1017.14 1016.84 1016.56 1016.32 1016.13 1016.01 1015.97 1016.00 1016.11 1016.30 1016.54 1016.83 1017.15 1017.51 1017.87 1018.25 1018.63 1019.00 1019.36 1019.71 1020.03 1020.34 1020.62 1020.87
1018.22 1018.39 1018.52 1018.61 1018.68 1018.73 1018.76 1018.79 1018.81 1018.83 1018.85 1018.86 1018.86 1018.84 1018.79 1018.70 1018.57 1018.41 1018.20 1017.96 1017.71 1017.45 1017.21 1017.00 1016.85 1016.75 1016.72 1016.77 1016.90 1017.08 1017.33 1017.62 1017.95 1018.29 1018.65 1019.00 1019.34 1019.66 1019.96 1020.23 1020.47 1020.68 1020.86 1021.00
1018.41 1018.59 1018.73 1018.83 1018.89 1018.93 1018.96 1018.98 1018.99 1019.01 1019.03 1019.05 1019.06 1019.07 1019.05 1019.00 1018.91 1018.79 1018.64 1018.46 1018.25 1018.05 1017.86 1017.69 1017.57 1017.51 1017.51 1017.58 1017.71 1017.91 1018.15 1018.44 1018.75 1019.07 1019.39 1019.70 1019.98 1020.24 1020.45 1020.63 1020.77 1020.87 1020.93 1020.97
1018.62 1018.80 1018.94 1019.04 1019.10 1019.12 1019.14 1019.14 1019.14 1019.15 1019.17 1019.19 1019.22 1019.25 1019.26 1019.25 1019.21 1019.14 1019.04 1018.92 1018.77 1018.63 1018.49 1018.38 1018.30 1018.27 1018.30 1018.38 1018.52 1018.72 1018.95 1019.22 1019.50 1019.79 1020.06 1020.31 1020.52 1020.69 1020.82 1020.90 1020.93 1020.93 1020.89 1020.83
1018.84 1019.02 1019.15 1019.23 1019.27 1019.28 1019.27 1019.26 1019.24 1019.24 1019.25 1019.27 1019.31 1019.35 1019.39 1019.42 1019.42 1019.41 1019.37 1019.31 1019.23 1019.15 1019.07 1019.01 1018.97 1018.98 1019.02 1019.12 1019.26 1019.44 1019.66 1019.89 1020.13 1020.37 1020.58 1020.76 1020.91 1021.00 1021.05 1021.04 1020.99 1020.90 1020.78 1020.65
1019.01 1019.19 1019.31 1019.38 1019.40 1019.38 1019.35 1019.31 1019.27 1019.25 1019.25 1019.27 1019.31 1019.37 1019.43 1019.49 1019.54 1019.58 1019.59 1019.59 1019.57 1019.55 1019.52 1019.51 1019.51 1019.54 1019.60 1019.69 1019.82 1019.98 1020.16 1020.35 1020.55 1020.73 1020.89 1021.02 1021.10 1021.14 1021.13 1021.07 1020.96 1020.82 1020.66 1020.49
1019.06 1019.24 1019.36 1019.42 1019.43 1019.40 1019.35 1019.29 1019.24 1019.20 1019.19 1019.20 1019.24 1019.31 1019.39 1019.47 1019.56 1019.63 1019.69 1019.74 1019.77 1019.79 1019.80 1019.82 1019.84 1019.88 1019.93 1020.01 1020.12 1020.25 1020.39 1020.54 1020.69 1020.83 1020.95 1021.04 1021.09 1021.10 1021.07 1020.99 1020.87 1020.73 1020.57 1020.40
Thickness
5711 5722 5727 5727 5729 5734 5727 5721 5714 5720 5726 5736 5745 5749 5751 5752 5752 5749 5746 5745 5744 5741 5741 5741 5738 5736 5733 5730 5727 5724 5719 5716 5713 5711 5708 5705 5703 5701 5699 5697 5695 5692 5690 5687
5706 5720 5723 5722 5728 5731 5730 5730 5727 5726 5727 5743 5746 5746 5745 5746 5746 5744 5743 5742 5740 5739 5737 5736 5735 5733 5730 5726 5724 5721 5716 5713 5710 5707 5704 5702 5699 5697 5694 5691 5689 5687 5684 5682
5686 5705 5710 5701 5717 5722 5724 5727 5727 5719 5725 5736 5735 5737 5738 5739 5741 5741 5741 5741 5738 5736 5735 5734 5733 5732 5727 5724 5721 5717 5713 5710 5707 5704 5701 5698 5696 5692 5689 5686 5683 5681 5679 5677
5676 5686 5677 5699 5722 5724 5719 5719 5725 5726 5729 5731 5732 5734 5736 5738 5737 5736 5738 5737 5736 5734 5733 5733 5731 5729 5726 5722 5717 5713 5709 5706 5704 5701 5698 5695 5692 5688 5685 5682 5679 5676 5674 5672
5664 5667 5679 5698 5709 5712 5705 5703 5717 5719 5723 5724 5727 5725 5725 5732 5732 5732 5733 5734 5734 5733 5731 5729 5726 5724 5720 5716 5712 5708 5705 5703 5701 5698 5694 5690 5687 5684 5681 5677 5674 5671 5669 5667
5663 5663 5663 5682 5706 5717 5707 5691 5709 5713 5713 5715 5716 5703 5709 5723 5725 5725 5727 5728 5728 5727 5725 5723 5721 5718 5714 5709 5705 5703 5702 5700 5697 5694 5691 5687 5683 5680 5676 5673 5670 5667 5664 5662
5657 5655 5665 5687 5704 5709 5682 5681 5701 5705 5707 5707 5705 5706 5712 5716 5718 5720 5721 5722 5722 5720 5717 5717 5716 5712 5706 5703 5700 5700 5698 5695 5691 5688 5686 5683 5679 5676 5672 5668 5664 5661 5658 5656
5648 5647 5655 5685 5691 5683 5680 5691 5696 5700 5702 5702 5703 5706 5708 5709 5710 5711 5711 5713 5713 5710 5709 5709 5709 5705 5700 5696 5697 5695 5691 5688 5684 5682 5680 5678 5673 5670 5666 5662 5658 5654 5651 5648
5648 5652 5667 5678 5680 5685 5687 5686 5691 5693 5696 5698 5697 5698 5700 5700 5701 5702 5703 5703 5704 5702 5699 5700 5700 5698 5693 5692 5691 5688 5684 5680 5678 5675 5673 5671 5667 5663 5659 5655 5651 5648 5645 5642
5646 5654 5662 5669 5674 5679 5682 5683 5688 5690 5692 5692 5689 5690 5690 5690 5691 5692 5693 5694 5695 5693 5691 5690 5691 5691 5689 5687 5685 5681 5676 5674 5671 5667 5664 5662 5659 5656 5652 5648 5645 5642 5639 5637
5638 5647 5655 5661 5665 5670 5674 5677 5679 5681 5683 5683 5682 5681 5681 5679 5679 5680 5682 5683 5683 5682 5681 5681 5682 5681 5681 5680 5677 5673 5669 5666 5663 5660 5657 5653 5650 5648 5645 5644 5642 5638 5635 5633
5628 5640 5641 5646 5656 5662 5663 5664 5666 5668 5670 5672 5672 5671 5670 5668 5669 5669 5669 5670 5670 5670 5670 5671 5672 5671 5671 5671 5669 5664 5660 5657 5655 5651 5648 5644 5641 5638 5636 5635 5635 5633 5631 5628
5636 5640 5641 5645 5649 5653 5654 5656 5657 5658 5659 5660 5661 5661 5660 5658 5659 5659 5658 5658 5658 5658 5659 5660 5661 5661 5662 5661 5659 5656 5653 5650 5647 5644 5640 5636 5633 5630 5626 5624 5624 5622 5621 5619
5636 5636 5634 5637 5639 5643 5646 5647 5647 5648 5648 5648 5648 5649 5648 5648 5649 5648 5648 5649 5649 5647 5647 5649 5650 5650 5652 5652 5650 5648 5645 5642 5640 5637 5633 5630 5627 5623 5620 5617 5613 5610 5610 5608
5629 5630 5628 5630 5631 5633 5635 5635 5634 5633 5634 5634 5635 5636 5636 5636 5636 5637 5638 5639 5638 5636 5636 5638 5639 5640 5642 5642 5641 5638 5635 5633 5631 5629 5625 5622 5619 5615 5612 5610 5606 5603 5599 5597
5622 5622 5622 5621 5620 5620 5620 5620 5620 5621 5622 5622 5622 5623 5624 5625 5626 5626 5627 5627 5625 5624 5626 5627 5629 5631 5633 5632 5631 5628 5626 5624 5622 5619 5616 5612 5610 5607 5604 5601 5598 5595 5592 5589
5610 5609 5609 5608 5609 5610 5610 5609 5609 5610 5611 5611 5611 5612 5613 5613 5613 5613 5614 5615 5615 5614 5616 5617 5618 5621 5622 5622 5621 5619 5616 5614 5613 5610 5607 5604 5601 5599 5596 5592 5590 5587 5585 5583
5605 5604 5603 5602 5601 5601 5600 5600 5601 5600 5600 5601 5602 5601 5601 5600 5599 5600 5602 5604 5604 5603 5605 5607 5608 5610 5610 5610 5610 5609 5607 5605 5602 5600 5598 5595 5592 5590 5587 5584 5581 5579 5576 5574
5598 5597 5596 5595 5594 5592 5590 5590 5590 5590 5590 5591 5590 5589 5589 5588 5588 5589 5591 5592 5592 5591 5592 5595 5597 5598 5598 5599 5599 5598 5596 5594 5593 5590 5588 5586 5583 5580 5578 5575 5572 5570 5567 5563
5590 5589 5588 5586 5586 5584 5582 5581 5581 5580 5580 5580 5579 5578 5577 5577 5579 5579 5580 5580 5581 5582 5582 5584 5586 5586 5587 5588 5588 5587 5586 5584 5582 5580 5578 5575 5572 5570 5567 5565 5563 5561 5558 5555
5581 5580 5579 5577 5576 5575 5574 5574 5572 5571 5570 5570 5568 5567 5567 5567 5568 5568 5568 5569 5571 5574 5575 5576 5576 5576 5578 5578 5578 5577 5576 5574 5572 5570 5567 5564 5562 5560 5558 5556 5555 5553 5550 5548
5573 5572 5570 5569 5566 5564 5564 5564 5564 5563 5562 5560 5560 5558 5558 5558 5558 5559 5560 5560 5562 5564 5565 5565 5566 5567 5568 5568 5567 5566 5565 5563 5562 5560 5558 5556 5554 5552 5550 5548 5546 5545 5543 5540
5565 5564 5562 5560 5558 5557 5556 5556 5555 5554 5554 5553 5551 5550 5549 5549 5549 5549 5549 5551 5553 5554 5554 5555 5556 5556 5556 5556 5555 5555 5554 5553 5551 5549 5548 5547 5546 5544 5542 5541 5539 5538 5536 5533
5557 5556 5554 5553 5552 5550 5548 5548 5547 5546 5546 5545 5544 5544 5542 5541 5541 5542 5542 5544 5544 5545 5545 5545 5546 5546 5546 5545 5545 5544 5544 5543 5542 5540 5539 5538 5537 5536 5534 5533 5531 5529 5528 5526
5551 5549 5547 5545 5544 5542 5541 5541 5540 5538 5537 5536 5536 5536 5536 5535 5535 5535 5536 5536 5537 5536 5537 5537 5538 5537 5536 5535 5535 5535 5534 5533 5532 5531 5531 5530 5529 5528 5526 5525 5523 5521 5520 5518
5544 5542 5540 5540 5538 5536 5535 5534 5532 5531 5530 5529 5528 5529 5529 5529 5529 5529 5529 5529 5529 5529 5529 5529 5529 5528 5527 5527 5526 5526 5525 5524 5524 5523 5522 5522 5521 5520 5518 5517 5516 5514 5512 5510
5539 5537 5535 5533 5533 5532 5531 5529 5527 5526 5525 5523 5522 5522 5522 5522 5522 5521 5521 5520 5520 5520 5520 5520 5520 5520 5519 5519 5518 5517 5517 5517 5516 5515 5515 5513 5513 5512 5511 5509 5508 5506 5504 5502